Time,TemperatureF,DewpointF,PressureIn,WindDirection,WindDirectionDegrees,WindSpeedMPH,WindSpeedGustMPH,Humidity,HourlyPrecipIn,Conditions,Clouds,dailyrainin,SoftwareType,DateUTC
2013-03-28 00:04:00,34.9,22.5,30.23,NW,315,0.0,0.0,60,0.00,,,0.00,WUHU21623XXSP,2013-03-28 04:04:00,
2013-03-28 00:09:00,34.3,22.3,30.23,NW,315,0.0,0.0,60,0.00,,,0.00,WUHU21623XXSP,2013-03-28 04:09:00,
2013-03-28 00:14:00,34.2,22.1,30.23,NW,315,0.0,0.0,61,0.00,,,0.00,WUHU21623XXSP,2013-03-28 04:14:00,
2013-03-28 00:19:00,33.4,21.6,30.23,NW,315,0.0,0.0,61,0.00,,,0.00,WUHU21623XXSP,2013-03-28 04:19:00,
2013-03-28 00:24:00,33.1,21.1,30.23,NW,315,0.0,0.0,61,0.00,,,0.00,WUHU21623XXSP,2013-03-28 04:24:00,
2013-03-28 00:29:00,32.7,20.9,30.23,NW,315,0.0,0.0,61,0.00,,,0.00,WUHU21623XXSP,2013-03-28 04:29:00,
2013-03-28 00:34:00,32.5,21.0,30.23,NW,315,0.0,0.0,62,0.00,,,0.00,WUHU21623XXSP,2013-03-28 04:34:00,
2013-03-28 00:39:00,32.2,20.6,30.23,NW,315,0.0,0.0,62,0.00,,,0.00,WUHU21623XXSP,2013-03-28 04:39:00,
2013-03-28 00:44:00,32.0,20.8,30.23,NW,315,0.0,0.0,63,0.00,,,0.00,WUHU21623XXSP,2013-03-28 04:44:00,
2013-03-28 00:49:00,31.6,20.8,30.23,NW,315,0.0,0.0,64,0.00,,,0.00,WUHU21623XXSP,2013-03-28 04:49:00,
2013-03-28 00:54:00,31.6,20.8,30.23,NW,315,0.0,0.0,64,0.00,,,0.00,WUHU21623XXSP,2013-03-28 04:54:00,
2013-03-28 00:59:00,31.3,20.5,30.22,NW,315,0.0,0.0,64,0.00,,,0.00,WUHU21623XXSP,2013-03-28 04:59:00,
2013-03-28 01:13:00,30.6,20.7,30.23,NW,315,0.0,0.0,66,0.00,,,0.00,WUHU21623XXSP,2013-03-28 05:13:00,
2013-03-28 01:18:00,30.4,20.5,30.23,NW,315,0.0,0.0,66,0.00,,,0.00,WUHU21623XXSP,2013-03-28 05:18:00,
2013-03-28 01:23:00,30.4,20.3,30.23,NW,315,0.0,0.0,66,0.00,,,0.00,WUHU21623XXSP,2013-03-28 05:23:00,
2013-03-28 01:28:00,30.4,20.7,30.23,NW,315,0.0,0.0,67,0.00,,,0.00,WUHU21623XXSP,2013-03-28 05:28:00,
2013-03-28 01:33:00,30.2,20.5,30.23,NW,315,0.0,0.0,67,0.00,,,0.00,WUHU21623XXSP,2013-03-28 05:33:00,
2013-03-28 01:38:00,30.0,20.3,30.23,NW,315,0.0,0.0,67,0.00,,,0.00,WUHU21623XXSP,2013-03-28 05:38:00,
2013-03-28 01:43:00,30.0,20.7,30.23,NW,315,0.0,0.0,68,0.00,,,0.00,WUHU21623XXSP,2013-03-28 05:43:00,
2013-03-28 01:48:00,29.8,20.7,30.23,NW,315,0.0,0.0,68,0.00,,,0.00,WUHU21623XXSP,2013-03-28 05:48:00,
2013-03-28 01:53:00,29.8,20.5,30.23,NW,315,0.0,0.0,68,0.00,,,0.00,WUHU21623XXSP,2013-03-28 05:53:00,
2013-03-28 01:58:00,29.7,20.4,30.22,NW,315,0.0,0.0,68,0.00,,,0.00,WUHU21623XXSP,2013-03-28 05:58:00,
2013-03-28 02:03:00,29.7,20.4,30.22,NW,315,0.0,0.0,68,0.00,,,0.00,WUHU21623XXSP,2013-03-28 06:03:00,
2013-03-28 02:08:00,29.5,20.6,30.22,NW,315,0.0,0.0,69,0.00,,,0.00,WUHU21623XXSP,2013-03-28 06:08:00,
2013-03-28 02:13:00,29.5,20.9,30.22,NW,315,0.0,0.0,70,0.00,,,0.00,WUHU21623XXSP,2013-03-28 06:13:00,
2013-03-28 02:18:00,29.3,20.8,30.22,NW,315,0.0,0.0,69,0.00,,,0.00,WUHU21623XXSP,2013-03-28 06:18:00,
2013-03-28 02:23:00,29.1,20.8,30.23,NW,315,0.0,0.0,70,0.00,,,0.00,WUHU21623XXSP,2013-03-28 06:23:00,
2013-03-28 02:28:00,29.1,20.6,30.22,NW,315,0.0,0.0,70,0.00,,,0.00,WUHU21623XXSP,2013-03-28 06:28:00,
2013-03-28 02:33:00,28.9,20.6,30.22,NW,315,0.0,0.0,70,0.00,,,0.00,WUHU21623XXSP,2013-03-28 06:33:00,
2013-03-28 02:38:00,28.8,20.3,30.22,NW,315,0.0,0.0,70,0.00,,,0.00,WUHU21623XXSP,2013-03-28 06:38:00,
2013-03-28 02:43:00,28.8,20.3,30.23,NW,315,0.0,0.0,70,0.00,,,0.00,WUHU21623XXSP,2013-03-28 06:43:00,
2013-03-28 02:48:00,28.6,20.1,30.23,NW,315,0.0,0.0,70,0.00,,,0.00,WUHU21623XXSP,2013-03-28 06:48:00,
2013-03-28 02:53:00,28.6,20.1,30.22,NW,315,0.0,0.0,71,0.00,,,0.00,WUHU21623XXSP,2013-03-28 06:53:00,
2013-03-28 02:58:00,28.2,20.1,30.23,NW,315,0.0,0.0,71,0.00,,,0.00,WUHU21623XXSP,2013-03-28 06:58:00,
2013-03-28 03:03:00,28.2,20.1,30.23,NW,315,0.0,0.0,71,0.00,,,0.00,WUHU21623XXSP,2013-03-28 07:03:00,
2013-03-28 03:08:00,28.2,20.1,30.23,NW,315,0.0,0.0,71,0.00,,,0.00,WUHU21623XXSP,2013-03-28 07:08:00,
2013-03-28 03:13:00,28.0,19.9,30.23,NW,315,0.0,0.0,71,0.00,,,0.00,WUHU21623XXSP,2013-03-28 07:13:00,
2013-03-28 03:18:00,28.0,20.2,30.23,NW,315,0.0,0.0,72,0.00,,,0.00,WUHU21623XXSP,2013-03-28 07:18:00,
2013-03-28 03:23:00,28.0,20.2,30.23,NW,315,0.0,0.0,72,0.00,,,0.00,WUHU21623XXSP,2013-03-28 07:23:00,
2013-03-28 03:28:00,27.9,20.2,30.22,NW,315,0.0,0.0,72,0.00,,,0.00,WUHU21623XXSP,2013-03-28 07:28:00,
2013-03-28 03:33:00,27.7,19.8,30.22,NW,315,0.0,0.0,72,0.00,,,0.00,WUHU21623XXSP,2013-03-28 07:33:00,
2013-03-28 03:38:00,27.7,20.1,30.23,NW,315,0.0,0.0,73,0.00,,,0.00,WUHU21623XXSP,2013-03-28 07:38:00,
2013-03-28 03:43:00,27.7,20.1,30.23,NW,315,0.0,0.0,73,0.00,,,0.00,WUHU21623XXSP,2013-03-28 07:43:00,
2013-03-28 03:48:00,27.5,20.0,30.22,NW,315,0.0,0.0,73,0.00,,,0.00,WUHU21623XXSP,2013-03-28 07:48:00,
2013-03-28 03:53:00,27.5,20.0,30.23,NW,315,0.0,0.0,73,0.00,,,0.00,WUHU21623XXSP,2013-03-28 07:53:00,
2013-03-28 03:58:00,27.5,20.0,30.22,NW,315,0.0,0.0,73,0.00,,,0.00,WUHU21623XXSP,2013-03-28 07:58:00,
2013-03-28 04:03:00,27.3,19.8,30.22,NW,315,0.0,0.0,73,0.00,,,0.00,WUHU21623XXSP,2013-03-28 08:03:00,
2013-03-28 04:08:00,27.3,19.8,30.22,NW,315,0.0,0.0,73,0.00,,,0.00,WUHU21623XXSP,2013-03-28 08:08:00,
2013-03-28 04:13:00,27.3,20.1,30.22,NW,315,0.0,0.0,74,0.00,,,0.00,WUHU21623XXSP,2013-03-28 08:13:00,
2013-03-28 04:18:00,27.3,20.1,30.23,NW,315,0.0,0.0,74,0.00,,,0.00,WUHU21623XXSP,2013-03-28 08:18:00,
2013-03-28 04:23:00,27.1,19.9,30.23,NW,315,0.0,0.0,74,0.00,,,0.00,WUHU21623XXSP,2013-03-28 08:23:00,
2013-03-28 04:28:00,27.1,20.2,30.23,NW,315,0.0,0.0,75,0.00,,,0.00,WUHU21623XXSP,2013-03-28 08:28:00,
2013-03-28 04:33:00,27.1,20.2,30.23,NW,315,0.0,0.0,75,0.00,,,0.00,WUHU21623XXSP,2013-03-28 08:33:00,
2013-03-28 04:38:00,27.1,20.2,30.23,NW,315,0.0,0.0,75,0.00,,,0.00,WUHU21623XXSP,2013-03-28 08:38:00,
2013-03-28 04:43:00,27.0,20.0,30.23,NW,315,0.0,0.0,75,0.00,,,0.00,WUHU21623XXSP,2013-03-28 08:43:00,
2013-03-28 04:48:00,27.0,20.3,30.23,NW,315,0.0,0.0,76,0.00,,,0.00,WUHU21623XXSP,2013-03-28 08:48:00,
2013-03-28 04:53:00,27.0,20.3,30.23,NW,315,0.0,0.0,76,0.00,,,0.00,WUHU21623XXSP,2013-03-28 08:53:00,
2013-03-28 04:58:00,27.0,20.3,30.23,NW,315,0.0,0.0,76,0.00,,,0.00,WUHU21623XXSP,2013-03-28 08:58:00,
2013-03-28 05:03:00,27.0,20.3,30.23,NW,315,0.0,0.0,76,0.00,,,0.00,WUHU21623XXSP,2013-03-28 09:03:00,
2013-03-28 05:08:00,27.0,20.3,30.22,NW,315,0.0,0.0,76,0.00,,,0.00,WUHU21623XXSP,2013-03-28 09:08:00,
2013-03-28 05:13:00,26.8,20.5,30.22,NW,315,0.0,0.0,77,0.00,,,0.00,WUHU21623XXSP,2013-03-28 09:13:00,
2013-03-28 05:18:00,26.8,20.5,30.22,NW,315,0.0,0.0,77,0.00,,,0.00,WUHU21623XXSP,2013-03-28 09:18:00,
2013-03-28 05:23:00,26.6,20.3,30.22,NW,315,0.0,0.0,77,0.00,,,0.00,WUHU21623XXSP,2013-03-28 09:23:00,
2013-03-28 05:28:00,26.4,20.1,30.22,NW,315,0.0,0.0,77,0.00,,,0.00,WUHU21623XXSP,2013-03-28 09:28:00,
2013-03-28 05:33:00,26.4,20.1,30.22,NW,315,0.0,0.0,77,0.00,,,0.00,WUHU21623XXSP,2013-03-28 09:33:00,
2013-03-28 05:38:00,26.4,20.1,30.23,NW,315,0.0,0.0,77,0.00,,,0.00,WUHU21623XXSP,2013-03-28 09:38:00,
2013-03-28 05:43:00,26.4,20.1,30.23,NW,315,0.0,0.0,77,0.00,,,0.00,WUHU21623XXSP,2013-03-28 09:43:00,
2013-03-28 05:48:00,26.4,20.1,30.23,NW,315,0.0,0.0,77,0.00,,,0.00,WUHU21623XXSP,2013-03-28 09:48:00,
2013-03-28 05:53:00,26.2,19.9,30.23,NW,315,0.0,0.0,77,0.00,,,0.00,WUHU21623XXSP,2013-03-28 09:53:00,
2013-03-28 05:58:00,26.1,19.8,30.23,NW,315,0.0,0.0,77,0.00,,,0.00,WUHU21623XXSP,2013-03-28 09:58:00,
2013-03-28 06:03:00,26.1,19.8,30.23,NW,315,0.0,0.0,77,0.00,,,0.00,WUHU21623XXSP,2013-03-28 10:03:00,
2013-03-28 06:08:00,25.9,19.6,30.23,NW,315,0.0,0.0,77,0.00,,,0.00,WUHU21623XXSP,2013-03-28 10:08:00,
2013-03-28 06:13:00,25.9,19.6,30.24,NW,315,0.0,0.0,77,0.00,,,0.00,WUHU21623XXSP,2013-03-28 10:13:00,
2013-03-28 06:18:00,25.9,19.9,30.24,NW,315,0.0,0.0,78,0.00,,,0.00,WUHU21623XXSP,2013-03-28 10:18:00,
2013-03-28 06:23:00,25.9,19.9,30.24,NW,315,0.0,0.0,78,0.00,,,0.00,WUHU21623XXSP,2013-03-28 10:23:00,
2013-03-28 06:28:00,25.7,19.8,30.24,NW,315,0.0,0.0,78,0.00,,,0.00,WUHU21623XXSP,2013-03-28 10:28:00,
2013-03-28 06:33:00,25.7,19.8,30.24,NW,315,0.0,0.0,78,0.00,,,0.00,WUHU21623XXSP,2013-03-28 10:33:00,
2013-03-28 06:38:00,25.7,19.8,30.24,NW,315,0.0,0.0,78,0.00,,,0.00,WUHU21623XXSP,2013-03-28 10:38:00,
2013-03-28 06:43:00,25.5,19.6,30.25,NW,315,0.0,0.0,78,0.00,,,0.00,WUHU21623XXSP,2013-03-28 10:43:00,
2013-03-28 06:48:00,25.5,19.6,30.25,NW,315,0.0,0.0,78,0.00,,,0.00,WUHU21623XXSP,2013-03-28 10:48:00,
2013-03-28 06:53:00,25.5,19.6,30.25,NW,315,0.0,0.0,78,0.00,,,0.00,WUHU21623XXSP,2013-03-28 10:53:00,
2013-03-28 06:58:00,25.5,19.6,30.25,NW,315,0.0,0.0,78,0.00,,,0.00,WUHU21623XXSP,2013-03-28 10:58:00,
2013-03-28 07:03:00,25.5,19.6,30.25,NW,315,0.0,0.0,78,0.00,,,0.00,WUHU21623XXSP,2013-03-28 11:03:00,
2013-03-28 07:08:00,25.3,19.4,30.25,NW,315,0.0,0.0,78,0.00,,,0.00,WUHU21623XXSP,2013-03-28 11:08:00,
2013-03-28 07:13:00,25.3,19.4,30.25,NW,315,0.0,0.0,78,0.00,,,0.00,WUHU21623XXSP,2013-03-28 11:13:00,
2013-03-28 07:18:00,25.3,19.7,30.26,NW,315,0.0,0.0,79,0.00,,,0.00,WUHU21623XXSP,2013-03-28 11:18:00,
2013-03-28 07:23:00,25.3,19.7,30.26,NW,315,0.0,0.0,79,0.00,,,0.00,WUHU21623XXSP,2013-03-28 11:23:00,
2013-03-28 07:28:00,25.3,19.7,30.27,NW,315,0.0,0.0,79,0.00,,,0.00,WUHU21623XXSP,2013-03-28 11:28:00,
2013-03-28 07:33:00,25.3,19.7,30.27,NW,315,0.0,0.0,79,0.00,,,0.00,WUHU21623XXSP,2013-03-28 11:33:00,
2013-03-28 07:38:00,25.3,19.7,30.26,NW,315,0.0,0.0,79,0.00,,,0.00,WUHU21623XXSP,2013-03-28 11:38:00,
2013-03-28 07:43:00,25.5,20.2,30.27,NW,315,0.0,0.0,80,0.00,,,0.00,WUHU21623XXSP,2013-03-28 11:43:00,
2013-03-28 07:48:00,25.7,20.4,30.27,NW,315,0.0,0.0,80,0.00,,,0.00,WUHU21623XXSP,2013-03-28 11:48:00,
2013-03-28 07:53:00,26.2,20.7,30.27,NW,315,0.0,0.0,80,0.00,,,0.00,WUHU21623XXSP,2013-03-28 11:53:00,
2013-03-28 07:58:00,26.8,21.7,30.27,NW,315,0.0,0.0,81,0.00,,,0.00,WUHU21623XXSP,2013-03-28 11:58:00,
2013-03-28 08:03:00,27.5,22.0,30.28,NW,315,0.0,0.0,82,0.00,,,0.00,WUHU21623XXSP,2013-03-28 12:03:00,
2013-03-28 08:08:00,28.2,23.4,30.27,NW,315,0.0,0.0,82,0.00,,,0.00,WUHU21623XXSP,2013-03-28 12:08:00,
2013-03-28 08:13:00,28.6,23.5,30.28,NW,315,0.0,0.0,81,0.00,,,0.00,WUHU21623XXSP,2013-03-28 12:13:00,
2013-03-28 08:19:00,29.1,23.7,30.28,NW,315,0.0,0.0,80,0.00,,,0.00,WUHU21623XXSP,2013-03-28 12:19:00,
2013-03-28 08:24:00,29.7,24.3,30.28,NW,315,0.0,0.0,80,0.00,,,0.00,WUHU21623XXSP,2013-03-28 12:24:00,
2013-03-28 08:29:00,30.0,24.6,30.28,NW,315,0.0,0.0,80,0.00,,,0.00,WUHU21623XXSP,2013-03-28 12:29:00,
2013-03-28 08:34:00,30.7,25.0,30.28,NW,315,0.0,0.0,80,0.00,,,0.00,WUHU21623XXSP,2013-03-28 12:34:00,
2013-03-28 08:39:00,31.3,25.6,30.28,NW,315,0.0,0.0,79,0.00,,,0.00,WUHU21623XXSP,2013-03-28 12:39:00,
2013-03-28 08:44:00,31.8,26.1,30.28,NW,315,0.0,0.0,79,0.00,,,0.00,WUHU21623XXSP,2013-03-28 12:44:00,
2013-03-28 08:49:00,32.5,26.4,30.28,NW,315,0.0,0.0,78,0.00,,,0.00,WUHU21623XXSP,2013-03-28 12:49:00,
2013-03-28 08:54:00,33.8,27.2,30.28,NW,315,0.0,0.0,78,0.00,,,0.00,WUHU21623XXSP,2013-03-28 12:54:00,
2013-03-28 08:59:00,34.3,27.6,30.28,NW,315,0.0,0.0,77,0.00,,,0.00,WUHU21623XXSP,2013-03-28 12:59:00,
2013-03-28 09:04:00,35.1,27.8,30.28,NW,315,0.0,0.0,75,0.00,,,0.00,WUHU21623XXSP,2013-03-28 13:04:00,
2013-03-28 09:09:00,35.8,28.3,30.28,NW,315,0.0,0.0,74,0.00,,,0.00,WUHU21623XXSP,2013-03-28 13:09:00,
2013-03-28 09:14:00,36.3,28.8,30.28,NW,315,0.0,0.0,74,0.00,,,0.00,WUHU21623XXSP,2013-03-28 13:14:00,
2013-03-28 09:19:00,36.5,28.5,30.28,NW,315,0.0,0.0,73,0.00,,,0.00,WUHU21623XXSP,2013-03-28 13:19:00,
2013-03-28 09:24:00,36.9,28.5,30.28,NW,315,0.0,0.0,71,0.00,,,0.00,WUHU21623XXSP,2013-03-28 13:24:00,
2013-03-28 09:29:00,37.2,28.7,30.28,NW,315,0.0,0.0,71,0.00,,,0.00,WUHU21623XXSP,2013-03-28 13:29:00,
2013-03-28 09:34:00,37.2,28.4,30.28,NW,315,0.0,0.0,70,0.00,,,0.00,WUHU21623XXSP,2013-03-28 13:34:00,
2013-03-28 09:39:00,37.8,28.9,30.28,NW,315,0.0,0.0,70,0.00,,,0.00,WUHU21623XXSP,2013-03-28 13:39:00,
2013-03-28 09:44:00,38.1,29.2,30.28,NW,315,0.0,0.0,70,0.00,,,0.00,WUHU21623XXSP,2013-03-28 13:44:00,
2013-03-28 09:49:00,38.5,29.0,30.28,NW,315,0.0,0.0,69,0.00,,,0.00,WUHU21623XXSP,2013-03-28 13:49:00,
2013-03-28 09:54:00,39.4,29.6,30.28,NW,315,0.0,0.0,68,0.00,,,0.00,WUHU21623XXSP,2013-03-28 13:54:00,
2013-03-28 09:59:00,39.7,29.6,30.28,NW,315,0.0,0.0,67,0.00,,,0.00,WUHU21623XXSP,2013-03-28 13:59:00,
2013-03-28 10:04:00,40.1,29.4,30.28,NW,315,0.0,0.0,66,0.00,,,0.00,WUHU21623XXSP,2013-03-28 14:04:00,
2013-03-28 10:09:00,41.2,30.3,30.29,NW,315,0.0,0.0,65,0.00,,,0.00,WUHU21623XXSP,2013-03-28 14:09:00,
2013-03-28 10:14:00,41.5,30.2,30.29,NW,315,0.0,0.0,64,0.00,,,0.00,WUHU21623XXSP,2013-03-28 14:14:00,
2013-03-28 10:19:00,42.4,30.0,30.29,NW,315,0.0,0.0,62,0.00,,,0.00,WUHU21623XXSP,2013-03-28 14:19:00,
2013-03-28 10:24:00,42.6,30.5,30.29,North,0,0.0,0.0,62,0.00,,,0.00,WUHU21623XXSP,2013-03-28 14:24:00,
2013-03-28 10:29:00,43.3,30.2,30.28,North,0,0.0,0.0,59,0.00,,,0.00,WUHU21623XXSP,2013-03-28 14:29:00,
2013-03-28 10:34:00,44.2,30.9,30.28,North,0,0.0,0.0,59,0.00,,,0.00,WUHU21623XXSP,2013-03-28 14:34:00,
2013-03-28 10:39:00,45.1,30.8,30.29,North,0,0.0,0.0,57,0.00,,,0.00,WUHU21623XXSP,2013-03-28 14:39:00,
2013-03-28 10:44:00,45.7,30.4,30.29,NNW,337,0.0,0.0,55,0.00,,,0.00,WUHU21623XXSP,2013-03-28 14:44:00,
2013-03-28 10:49:00,46.6,30.3,30.29,NNW,337,0.0,0.0,53,0.00,,,0.00,WUHU21623XXSP,2013-03-28 14:49:00,
2013-03-28 10:54:00,47.1,30.8,30.28,NNW,337,0.0,0.0,53,0.00,,,0.00,WUHU21623XXSP,2013-03-28 14:54:00,
2013-03-28 10:59:00,48.0,31.1,30.29,NW,315,0.0,0.0,52,0.00,,,0.00,WUHU21623XXSP,2013-03-28 14:59:00,
2013-03-28 11:04:00,49.3,31.5,30.28,NNW,337,0.0,0.0,50,0.00,,,0.00,WUHU21623XXSP,2013-03-28 15:04:00,
2013-03-28 11:09:00,49.8,31.4,30.28,West,270,0.0,0.0,49,0.00,,,0.00,WUHU21623XXSP,2013-03-28 15:09:00,
2013-03-28 11:14:00,50.7,31.2,30.28,WNW,292,0.0,0.0,47,0.00,,,0.00,WUHU21623XXSP,2013-03-28 15:14:00,
2013-03-28 11:19:00,51.6,31.1,30.28,NW,315,0.0,0.0,45,0.00,,,0.00,WUHU21623XXSP,2013-03-28 15:19:00,
2013-03-28 11:24:00,52.3,30.9,30.28,West,270,0.0,0.0,44,0.00,,,0.00,WUHU21623XXSP,2013-03-28 15:24:00,
2013-03-28 11:29:00,52.7,30.7,30.29,West,270,0.0,0.0,43,0.00,,,0.00,WUHU21623XXSP,2013-03-28 15:29:00,
2013-03-28 11:34:00,54.0,30.2,30.28,WNW,292,0.0,0.0,40,0.00,,,0.00,WUHU21623XXSP,2013-03-28 15:34:00,
2013-03-28 11:39:00,54.9,29.6,30.28,SSW,202,0.0,0.0,38,0.00,,,0.00,WUHU21623XXSP,2013-03-28 15:39:00,
2013-03-28 11:44:00,55.2,29.2,30.28,NW,315,0.0,0.0,37,0.00,,,0.00,WUHU21623XXSP,2013-03-28 15:44:00,
2013-03-28 12:24:00,55.4,24.2,30.28,North,0,0.0,0.0,30,0.00,,,0.00,WUHU21623XXSP,2013-03-28 16:24:00,
2013-03-28 12:29:00,55.9,25.5,30.28,West,270,0.0,0.0,31,0.00,,,1.96,WUHU21623XXSP,2013-03-28 16:29:00,
2013-03-28 12:34:00,56.3,24.3,30.28,West,270,1.1,1.1,29,0.00,,,1.96,WUHU21623XXSP,2013-03-28 16:34:00,
2013-03-28 12:39:00,56.1,24.1,30.28,West,270,2.5,2.5,29,0.00,,,1.96,WUHU21623XXSP,2013-03-28 16:39:00,
2013-03-28 12:44:00,55.9,24.0,30.28,West,270,0.0,2.5,29,0.00,,,1.96,WUHU21623XXSP,2013-03-28 16:44:00,
2013-03-28 12:49:00,56.3,25.3,30.28,North,0,0.0,0.0,30,0.00,,,1.96,WUHU21623XXSP,2013-03-28 16:49:00,
2013-03-28 12:54:00,56.8,25.7,30.27,NW,315,0.0,0.0,30,0.00,,,1.96,WUHU21623XXSP,2013-03-28 16:54:00,
2013-03-28 12:59:00,57.4,26.1,30.27,North,0,0.0,0.0,30,0.00,,,1.96,WUHU21623XXSP,2013-03-28 16:59:00,
2013-03-28 13:04:00,58.1,26.9,30.27,North,0,0.0,0.0,30,0.00,,,1.96,WUHU21623XXSP,2013-03-28 17:04:00,
2013-03-28 13:09:00,58.6,28.1,30.27,WSW,247,0.0,0.0,31,0.00,,,1.96,WUHU21623XXSP,2013-03-28 17:09:00,
2013-03-28 13:14:00,58.8,28.2,30.27,SSW,202,0.0,0.0,31,0.00,,,1.96,WUHU21623XXSP,2013-03-28 17:14:00,
2013-03-28 13:19:00,59.5,28.7,30.27,West,270,0.0,0.0,31,0.00,,,1.96,WUHU21623XXSP,2013-03-28 17:19:00,
2013-03-28 13:25:00,59.9,29.1,30.27,West,270,0.0,0.0,31,0.00,,,1.96,WUHU21623XXSP,2013-03-28 17:25:00,
2013-03-28 13:30:00,60.4,29.5,30.26,WSW,247,3.8,3.8,31,0.00,,,1.96,WUHU21623XXSP,2013-03-28 17:30:00,
2013-03-28 13:35:00,60.6,29.0,30.26,West,270,0.0,3.8,30,0.00,,,1.96,WUHU21623XXSP,2013-03-28 17:35:00,
2013-03-28 13:40:00,60.6,29.7,30.26,WNW,292,0.0,0.0,31,0.00,,,1.96,WUHU21623XXSP,2013-03-28 17:40:00,
2013-03-28 13:45:00,60.6,29.0,30.26,WSW,247,0.0,0.0,30,0.00,,,1.96,WUHU21623XXSP,2013-03-28 17:45:00,
2013-03-28 13:50:00,60.6,30.4,30.26,SW,225,0.0,0.0,32,0.00,,,1.96,WUHU21623XXSP,2013-03-28 17:50:00,
2013-03-28 13:55:00,60.6,29.0,30.26,NW,315,2.0,2.0,30,0.00,,,1.96,WUHU21623XXSP,2013-03-28 17:55:00,
2013-03-28 14:00:00,61.0,30.7,30.26,SW,225,0.0,2.0,32,0.00,,,1.96,WUHU21623XXSP,2013-03-28 18:00:00,
2013-03-28 14:05:00,61.0,30.7,30.26,SW,225,0.0,0.0,32,0.00,,,1.96,WUHU21623XXSP,2013-03-28 18:05:00,
2013-03-28 14:10:00,61.0,30.7,30.25,WSW,247,0.0,0.0,32,0.00,,,1.96,WUHU21623XXSP,2013-03-28 18:10:00,
2013-03-28 14:15:00,61.5,31.2,30.25,WSW,247,0.0,0.0,32,0.00,,,1.96,WUHU21623XXSP,2013-03-28 18:15:00,
2013-03-28 14:20:00,61.5,31.2,30.25,NW,315,1.6,1.6,32,0.00,,,1.96,WUHU21623XXSP,2013-03-28 18:20:00,
2013-03-28 14:25:00,61.2,30.7,30.25,NW,315,0.0,1.6,32,0.00,,,1.96,WUHU21623XXSP,2013-03-28 18:25:00,
2013-03-28 14:30:00,61.2,30.9,30.25,North,0,5.8,5.8,32,0.00,,,1.96,WUHU21623XXSP,2013-03-28 18:30:00,
2013-03-28 14:35:00,61.0,30.7,30.25,West,270,0.0,5.8,32,0.00,,,1.96,WUHU21623XXSP,2013-03-28 18:35:00,
2013-03-28 14:40:00,61.5,31.2,30.25,WSW,247,0.0,0.0,32,0.00,,,1.96,WUHU21623XXSP,2013-03-28 18:40:00,
2013-03-28 14:45:00,61.5,31.4,30.25,NE,45,0.0,0.0,32,0.00,,,1.96,WUHU21623XXSP,2013-03-28 18:45:00,
2013-03-28 14:50:00,61.3,31.0,30.25,NNW,337,0.0,0.0,32,0.00,,,1.96,WUHU21623XXSP,2013-03-28 18:50:00,
2013-03-28 14:55:00,61.3,31.0,30.24,WSW,247,0.0,0.0,32,0.00,,,1.96,WUHU21623XXSP,2013-03-28 18:55:00,
2013-03-28 15:00:00,61.5,31.9,30.24,WSW,247,0.0,0.0,33,0.00,,,1.96,WUHU21623XXSP,2013-03-28 19:00:00,
2013-03-28 15:05:00,61.5,31.2,30.24,WSW,247,0.0,0.0,32,0.00,,,1.96,WUHU21623XXSP,2013-03-28 19:05:00,
2013-03-28 15:10:00,60.4,29.5,30.24,West,270,0.0,5.1,31,0.00,,,1.96,WUHU21623XXSP,2013-03-28 19:10:00,
2013-03-28 15:15:00,60.1,29.4,30.24,NNW,337,1.3,5.1,31,0.00,,,1.96,WUHU21623XXSP,2013-03-28 19:15:00,
2013-03-28 15:20:00,60.3,29.4,30.23,North,0,1.6,1.6,31,0.00,,,1.96,WUHU21623XXSP,2013-03-28 19:20:00,
2013-03-28 15:25:00,60.4,29.5,30.23,NNE,22,0.0,6.0,31,0.00,,,1.96,WUHU21623XXSP,2013-03-28 19:25:00,
2013-03-28 15:30:00,60.6,30.4,30.23,NNE,22,0.0,6.0,32,0.00,,,1.96,WUHU21623XXSP,2013-03-28 19:30:00,
2013-03-28 15:35:00,60.8,30.4,30.23,NNE,22,0.0,0.0,32,0.00,,,1.96,WUHU21623XXSP,2013-03-28 19:35:00,
2013-03-28 15:40:00,60.6,31.1,30.23,North,0,0.0,0.0,33,0.00,,,1.96,WUHU21623XXSP,2013-03-28 19:40:00,
2013-03-28 15:45:00,60.4,31.1,30.23,NNE,22,0.0,0.0,33,0.00,,,1.96,WUHU21623XXSP,2013-03-28 19:45:00,
2013-03-28 15:50:00,60.6,30.4,30.23,West,270,0.0,1.6,32,0.00,,,1.96,WUHU21623XXSP,2013-03-28 19:50:00,
2013-03-28 15:55:00,60.1,30.8,30.23,North,0,0.0,1.6,33,0.00,,,1.96,WUHU21623XXSP,2013-03-28 19:55:00,
2013-03-28 16:00:00,59.9,30.7,30.22,West,270,0.0,0.0,33,0.00,,,1.96,WUHU21623XXSP,2013-03-28 20:00:00,
2013-03-28 16:05:00,60.1,31.4,30.22,ENE,67,1.1,1.1,34,0.00,,,1.96,WUHU21623XXSP,2013-03-28 20:05:00,
2013-03-28 16:10:00,61.0,32.2,30.22,WSW,247,0.0,1.1,34,0.00,,,1.96,WUHU21623XXSP,2013-03-28 20:10:00,
2013-03-28 16:15:00,61.5,32.6,30.22,NNE,22,0.0,0.0,34,0.00,,,1.96,WUHU21623XXSP,2013-03-28 20:15:00,
2013-03-28 16:20:00,62.2,33.0,30.22,West,270,0.0,0.0,34,0.00,,,1.96,WUHU21623XXSP,2013-03-28 20:20:00,
2013-03-28 16:25:00,61.9,32.6,30.22,NW,315,0.0,0.0,33,0.00,,,1.96,WUHU21623XXSP,2013-03-28 20:25:00,
2013-03-28 16:30:00,61.5,31.9,30.22,West,270,0.0,0.0,33,0.00,,,1.96,WUHU21623XXSP,2013-03-28 20:30:00,
2013-03-28 16:35:00,61.0,31.4,30.22,WSW,247,4.7,4.7,33,0.00,,,1.96,WUHU21623XXSP,2013-03-28 20:35:00,
2013-03-28 16:40:00,59.7,31.1,30.22,NW,315,0.0,4.7,34,0.00,,,1.96,WUHU21623XXSP,2013-03-28 20:40:00,
2013-03-28 16:45:00,59.5,30.9,30.22,WSW,247,0.7,3.4,34,0.00,,,1.96,WUHU21623XXSP,2013-03-28 20:45:00,
2013-03-28 16:50:00,58.8,30.3,30.22,North,0,0.0,0.7,34,0.00,,,1.96,WUHU21623XXSP,2013-03-28 20:50:00,
2013-03-28 16:55:00,58.6,30.9,30.22,WSW,247,3.1,3.8,35,0.00,,,1.96,WUHU21623XXSP,2013-03-28 20:55:00,
2013-03-28 17:00:00,58.3,30.5,30.22,North,0,0.0,3.1,35,0.00,,,1.96,WUHU21623XXSP,2013-03-28 21:00:00,
2013-03-28 17:05:00,58.3,30.5,30.22,North,0,0.0,0.0,35,0.00,,,1.96,WUHU21623XXSP,2013-03-28 21:05:00,
2013-03-28 17:11:00,58.8,31.4,30.22,South,180,0.7,0.7,36,0.00,,,1.96,WUHU21623XXSP,2013-03-28 21:11:00,
2013-03-28 17:16:00,58.6,30.9,30.22,West,270,0.0,0.7,35,0.00,,,1.96,WUHU21623XXSP,2013-03-28 21:16:00,
2013-03-28 17:21:00,58.6,31.6,30.22,South,180,0.0,0.0,36,0.00,,,1.96,WUHU21623XXSP,2013-03-28 21:21:00,
2013-03-28 17:26:00,58.6,31.6,30.22,WNW,292,0.0,0.0,36,0.00,,,1.96,WUHU21623XXSP,2013-03-28 21:26:00,
2013-03-28 17:31:00,58.5,30.9,30.22,WNW,292,0.0,0.0,36,0.00,,,1.96,WUHU21623XXSP,2013-03-28 21:31:00,
2013-03-28 17:36:00,57.9,30.9,30.22,West,270,0.0,0.0,36,0.00,,,1.96,WUHU21623XXSP,2013-03-28 21:36:00,
2013-03-28 17:41:00,58.1,31.1,30.21,NNW,337,0.0,0.0,36,0.00,,,1.96,WUHU21623XXSP,2013-03-28 21:41:00,
2013-03-28 17:46:00,57.9,30.9,30.22,WSW,247,0.0,0.0,36,0.00,,,1.96,WUHU21623XXSP,2013-03-28 21:46:00,
2013-03-28 17:51:00,57.7,30.8,30.22,NNW,337,0.0,0.0,36,0.00,,,1.96,WUHU21623XXSP,2013-03-28 21:51:00,
2013-03-28 17:56:00,57.4,30.4,30.22,NW,315,0.0,0.0,36,0.00,,,1.96,WUHU21623XXSP,2013-03-28 21:56:00,
2013-03-28 18:01:00,57.0,30.1,30.22,West,270,0.0,0.0,36,0.00,,,1.96,WUHU21623XXSP,2013-03-28 22:01:00,
2013-03-28 18:06:00,56.1,29.6,30.22,WNW,292,0.0,0.0,36,0.00,,,1.96,WUHU21623XXSP,2013-03-28 22:06:00,
2013-03-28 18:11:00,55.8,29.1,30.22,WNW,292,0.0,0.0,36,0.00,,,1.96,WUHU21623XXSP,2013-03-28 22:11:00,
2013-03-28 18:16:00,55.4,28.8,30.22,NNW,337,0.0,0.0,36,0.00,,,1.96,WUHU21623XXSP,2013-03-28 22:16:00,
2013-03-28 18:21:00,55.2,29.2,30.22,NNW,337,0.0,0.0,37,0.00,,,1.96,WUHU21623XXSP,2013-03-28 22:21:00,
2013-03-28 18:26:00,55.2,29.2,30.22,NNW,337,0.0,0.0,37,0.00,,,1.96,WUHU21623XXSP,2013-03-28 22:26:00,
2013-03-28 18:31:00,54.9,28.9,30.22,North,0,0.0,0.0,37,0.00,,,1.96,WUHU21623XXSP,2013-03-28 22:31:00,
2013-03-28 18:36:00,54.7,28.7,30.22,North,0,0.0,0.0,37,0.00,,,1.96,WUHU21623XXSP,2013-03-28 22:36:00,
2013-03-28 18:41:00,54.3,29.1,30.22,West,270,0.0,0.0,38,0.00,,,1.96,WUHU21623XXSP,2013-03-28 22:41:00,
2013-03-28 18:46:00,54.1,28.9,30.22,WNW,292,0.0,0.0,38,0.00,,,1.96,WUHU21623XXSP,2013-03-28 22:46:00,
2013-03-28 18:51:00,54.1,28.9,30.22,WNW,292,0.0,0.0,38,0.00,,,1.96,WUHU21623XXSP,2013-03-28 22:51:00,
2013-03-28 18:56:00,54.1,28.9,30.22,WNW,292,0.0,0.0,38,0.00,,,1.96,WUHU21623XXSP,2013-03-28 22:56:00,
2013-03-28 19:01:00,53.4,28.3,30.22,NNW,337,0.0,0.0,38,0.00,,,1.96,WUHU21623XXSP,2013-03-28 23:01:00,
2013-03-28 19:06:00,53.4,28.3,30.22,NNW,337,0.0,0.0,38,0.00,,,1.96,WUHU21623XXSP,2013-03-28 23:06:00,
2013-03-28 19:11:00,52.9,28.5,30.22,NNW,337,0.0,0.0,39,0.00,,,1.96,WUHU21623XXSP,2013-03-28 23:11:00,
2013-03-28 19:16:00,52.7,28.3,30.22,NNW,337,0.0,0.0,39,0.00,,,1.96,WUHU21623XXSP,2013-03-28 23:16:00,
2013-03-28 19:21:00,52.3,28.0,30.22,NNW,337,0.0,0.0,39,0.00,,,1.96,WUHU21623XXSP,2013-03-28 23:21:00,
2013-03-28 19:26:00,52.3,28.0,30.22,NNW,337,0.0,0.0,39,0.00,,,1.96,WUHU21623XXSP,2013-03-28 23:26:00,
2013-03-28 19:31:00,51.8,27.5,30.23,NNW,337,0.0,0.0,39,0.00,,,1.96,WUHU21623XXSP,2013-03-28 23:31:00,
2013-03-28 19:36:00,51.6,28.1,30.22,NNW,337,0.0,0.0,40,0.00,,,1.96,WUHU21623XXSP,2013-03-28 23:36:00,
2013-03-28 19:41:00,51.6,28.1,30.22,NNW,337,0.0,0.0,40,0.00,,,1.96,WUHU21623XXSP,2013-03-28 23:41:00,
2013-03-28 19:46:00,50.7,27.2,30.23,NNW,337,0.0,0.0,40,0.00,,,1.96,WUHU21623XXSP,2013-03-28 23:46:00,
2013-03-28 19:51:00,50.2,26.8,30.23,NNW,337,0.0,0.0,40,0.00,,,1.96,WUHU21623XXSP,2013-03-28 23:51:00,
2013-03-28 19:56:00,49.8,26.4,30.23,NNW,337,0.0,0.0,40,0.00,,,1.96,WUHU21623XXSP,2013-03-28 23:56:00,
2013-03-28 20:01:00,49.6,26.3,30.23,NNW,337,0.0,0.0,40,0.00,,,1.96,WUHU21623XXSP,2013-03-29 00:01:00,
2013-03-28 20:06:00,49.1,25.8,30.23,NNW,337,0.0,0.0,40,0.00,,,1.96,WUHU21623XXSP,2013-03-29 00:06:00,
2013-03-28 20:11:00,48.7,25.5,30.23,NNW,337,0.0,0.0,40,0.00,,,1.96,WUHU21623XXSP,2013-03-29 00:11:00,
2013-03-28 20:16:00,48.2,25.7,30.24,NNW,337,0.0,0.0,41,0.00,,,1.96,WUHU21623XXSP,2013-03-29 00:16:00,
2013-03-28 20:21:00,48.0,25.4,30.23,NNW,337,0.0,0.0,41,0.00,,,1.96,WUHU21623XXSP,2013-03-29 00:21:00,
2013-03-28 20:26:00,47.7,25.0,30.23,NNW,337,0.0,0.0,41,0.00,,,1.96,WUHU21623XXSP,2013-03-29 00:26:00,
2013-03-28 20:31:00,47.1,25.1,30.24,NNW,337,0.0,0.0,42,0.00,,,1.96,WUHU21623XXSP,2013-03-29 00:31:00,
2013-03-28 20:37:00,46.9,25.1,30.24,NNW,337,0.0,0.0,42,0.00,,,1.96,WUHU21623XXSP,2013-03-29 00:37:00,
2013-03-28 20:42:00,46.6,24.6,30.24,NNW,337,0.0,0.0,42,0.00,,,1.96,WUHU21623XXSP,2013-03-29 00:42:00,
2013-03-28 20:47:00,46.2,24.3,30.24,NNW,337,0.0,0.0,42,0.00,,,1.96,WUHU21623XXSP,2013-03-29 00:47:00,
2013-03-28 20:52:00,46.0,24.7,30.24,NNW,337,0.0,0.0,43,0.00,,,1.96,WUHU21623XXSP,2013-03-29 00:52:00,
2013-03-28 20:57:00,45.7,24.3,30.24,NNW,337,0.0,0.0,43,0.00,,,1.96,WUHU21623XXSP,2013-03-29 00:57:00,
2013-03-28 21:02:00,45.3,24.5,30.24,NNW,337,0.0,0.0,44,0.00,,,1.96,WUHU21623XXSP,2013-03-29 01:02:00,
2013-03-28 21:07:00,45.0,24.2,30.24,NNW,337,0.0,0.0,44,0.00,,,1.96,WUHU21623XXSP,2013-03-29 01:07:00,
2013-03-28 21:12:00,44.6,24.1,30.24,NNW,337,0.0,0.0,44,0.00,,,1.96,WUHU21623XXSP,2013-03-29 01:12:00,
2013-03-28 21:17:00,44.2,24.1,30.25,NNW,337,0.0,0.0,45,0.00,,,1.96,WUHU21623XXSP,2013-03-29 01:17:00,
2013-03-28 21:22:00,43.9,23.8,30.24,NNW,337,0.0,0.0,46,0.00,,,1.96,WUHU21623XXSP,2013-03-29 01:22:00,
2013-03-28 21:27:00,43.5,24.0,30.25,NNW,337,0.0,0.0,46,0.00,,,1.96,WUHU21623XXSP,2013-03-29 01:27:00,
2013-03-28 21:32:00,43.2,24.4,30.25,NNW,337,0.0,0.0,47,0.00,,,1.96,WUHU21623XXSP,2013-03-29 01:32:00,
2013-03-28 21:37:00,42.6,23.7,30.25,NNW,337,0.0,0.0,47,0.00,,,1.96,WUHU21623XXSP,2013-03-29 01:37:00,
2013-03-28 21:42:00,42.3,23.9,30.25,NNW,337,0.0,0.0,48,0.00,,,1.96,WUHU21623XXSP,2013-03-29 01:42:00,
2013-03-28 21:47:00,41.9,24.1,30.25,NNW,337,0.0,0.0,49,0.00,,,1.96,WUHU21623XXSP,2013-03-29 01:47:00,
2013-03-28 21:52:00,41.7,23.9,30.25,NNW,337,0.0,0.0,49,0.00,,,1.96,WUHU21623XXSP,2013-03-29 01:52:00,
2013-03-28 21:57:00,41.5,24.3,30.25,NNW,337,0.0,0.0,50,0.00,,,1.96,WUHU21623XXSP,2013-03-29 01:57:00,
2013-03-28 22:02:00,41.2,23.9,30.26,NNW,337,0.0,0.0,50,0.00,,,1.96,WUHU21623XXSP,2013-03-29 02:02:00,
2013-03-28 22:07:00,41.0,24.2,30.26,NNW,337,0.0,0.0,51,0.00,,,1.96,WUHU21623XXSP,2013-03-29 02:07:00,
2013-03-28 22:12:00,40.6,23.8,30.26,NNW,337,0.0,0.0,51,0.00,,,1.96,WUHU21623XXSP,2013-03-29 02:12:00,
2013-03-28 22:17:00,40.3,24.0,30.26,NNW,337,0.0,0.0,52,0.00,,,1.96,WUHU21623XXSP,2013-03-29 02:17:00,
2013-03-28 22:22:00,40.3,24.0,30.26,NNW,337,0.0,0.0,52,0.00,,,1.96,WUHU21623XXSP,2013-03-29 02:22:00,
2013-03-28 22:27:00,39.9,23.6,30.26,NNW,337,0.0,0.0,52,0.00,,,1.96,WUHU21623XXSP,2013-03-29 02:27:00,
2013-03-28 22:32:00,39.6,23.7,30.27,NNW,337,0.0,0.0,53,0.00,,,1.96,WUHU21623XXSP,2013-03-29 02:32:00,
2013-03-28 22:37:00,39.4,23.7,30.27,NNW,337,0.0,0.0,53,0.00,,,1.96,WUHU21623XXSP,2013-03-29 02:37:00,
2013-03-28 22:42:00,39.0,23.7,30.27,NNW,337,0.0,0.0,54,0.00,,,1.96,WUHU21623XXSP,2013-03-29 02:42:00,
2013-03-28 22:47:00,39.0,23.7,30.27,NNW,337,0.0,0.0,54,0.00,,,1.96,WUHU21623XXSP,2013-03-29 02:47:00,
2013-03-28 22:52:00,38.8,23.9,30.27,NNW,337,0.0,0.0,55,0.00,,,1.96,WUHU21623XXSP,2013-03-29 02:52:00,
2013-03-28 22:57:00,38.8,23.9,30.27,NNW,337,0.0,0.0,55,0.00,,,1.96,WUHU21623XXSP,2013-03-29 02:57:00,
2013-03-28 23:02:00,38.5,23.6,30.28,NNW,337,0.0,0.0,55,0.00,,,1.96,WUHU21623XXSP,2013-03-29 03:02:00,
2013-03-28 23:07:00,38.3,23.9,30.28,NNW,337,0.0,0.0,56,0.00,,,1.96,WUHU21623XXSP,2013-03-29 03:07:00,
2013-03-28 23:12:00,38.1,23.7,30.28,NNW,337,0.0,0.0,56,0.00,,,1.96,WUHU21623XXSP,2013-03-29 03:12:00,
2013-03-28 23:17:00,37.9,24.0,30.28,NNW,337,0.0,0.0,57,0.00,,,1.96,WUHU21623XXSP,2013-03-29 03:17:00,
2013-03-28 23:22:00,37.4,23.5,30.28,NNW,337,0.0,0.0,57,0.00,,,1.96,WUHU21623XXSP,2013-03-29 03:22:00,
2013-03-28 23:27:00,37.2,23.8,30.28,NNW,337,0.0,0.0,58,0.00,,,1.96,WUHU21623XXSP,2013-03-29 03:27:00,
2013-03-28 23:32:00,37.0,23.6,30.28,NNW,337,0.0,0.0,58,0.00,,,1.96,WUHU21623XXSP,2013-03-29 03:32:00,
2013-03-28 23:37:00,36.5,23.6,30.28,NNW,337,0.0,0.0,59,0.00,,,1.96,WUHU21623XXSP,2013-03-29 03:37:00,
2013-03-28 23:42:00,36.5,23.6,30.28,NNW,337,0.0,0.0,59,0.00,,,1.96,WUHU21623XXSP,2013-03-29 03:42:00,
2013-03-28 23:47:00,36.3,23.4,30.28,NNW,337,0.0,0.0,59,0.00,,,1.96,WUHU21623XXSP,2013-03-29 03:47:00,
2013-03-28 23:52:00,36.3,23.8,30.28,NNW,337,0.0,0.0,59,0.00,,,1.96,WUHU21623XXSP,2013-03-29 03:52:00,
2013-03-28 23:57:00,36.3,23.4,30.28,NNW,337,0.0,0.0,59,0.00,,,1.96,WUHU21623XXSP,2013-03-29 03:57:00,